FENGYUN 1C DEB, 30021

Orbit data source: Space-Track

FENGYUN 1C DEB, 30021 is space debris in SSO originally from a launch on Mon, 10 May 1999 UTC launched from the Taiyaun Space Center, China (TSC). Fengyun 1C debris stems from the Chinese weather satellite Fengyun-1C, which was intentionally destroyed by a Chinese anti-satellite missile in 2007. This event dramatically increased the amount of space debris, with thousands of trackable fragments posing hazards to satellites and human spaceflight. The Fengyun 1C debris cloud has become a focal point in discussions about space sustainability and the need for international regulations to prevent the creation of new debris.

Loading next visibility...
Identifier
30021, 1999-025MW
Orbit
SSO
Country
Flag of CNCN / PRC
Related business
Manufacturer
Unknown
Mission
Spacecraft
Bus & Motor
Unknown
Mass
Unknown
Launch date (UTC)
1999-05-10 (26 years ago)
Launch vehicle
Unknown
Launch site
Taiyaun Space Center, China (TSC)
Object type
Payload
Rocket body
Debris
Shape & HBR
Unknown shape, 0.3 m
Radar Cross Section
Small (<0.1 m²)

Expand to show TLE details & history
Last TLE update: 14 hours ago

TLE from 14 hours ago
0 FENGYUN 1C DEB
1 30021U 99025MW  25309.94683802  .00000029  00000-0  43667-4 0  9991
2 30021  98.8338 302.4433 0073502  30.5487 358.5358 14.04866588964152
Epoch: 2025-11-05T22:43Z
TLE epoch observation values (Epoch: 2025-11-05T22:43:26.804Z)
Latitude
28.73246°
Longitude
-88.69215°
Altitude
827.201 km
Speed
7.469 km/s
True Right ascension
19h 50m 19s
True Declination
28° 35' 21"
Sunlit
Object was in daylight at epoch
Visualization orbit readout
Latitude
Unknown
Longitude
Unknown
Altitude
Unknown
Speed
Unknown
Apparent Right ascension
Unknown
Apparent Declination
Unknown
Sunlit
N/A
Visualization observer readout
Local Sidereal Time
08:17:20
Azimuth
Unknown
Elevation
Unknown
Doppler factor
Unknown
Orbital elements
Apogee altitude
927.482 km
Perigee altitude
820.87 km
Semi-major axis
7,252.313 km
Eccentricity
0.00735
Inclination
98.8338°
RAAN
302.4433°
Arg. of periapsis
30.5487°
True anomaly
358.51408°
Mean anomaly
358.5358°
Eccentric anomaly
358.52496°
Mean motion
3.51422 °/min
Orbital period
102.44 mins
BSTAR
0.000043667
Loading maneuver chart data...
Computing Atmospheric mass density...

Documentation

Showing up to 5 results
|